Вернуться в каталог

ARABSAT 1D

ANIK D2

АктивенСвязьGEO
NORAD 15383·PAYLOAD·🇦🇪 UAE🇸🇦 Saudi Arabia

Запущен Nov 8, 1984 с Cape Canaveral Space Force Station

Loading…

TLE

СвежийSource: Space-Track

Эпоха: Sep 14, 2026, 11:30 UTC

1 15383U 84113B   26257.47942390 -.00000038  00000-0  00000-0 0  9999
2 15383  13.5234 341.0469 0024001  28.8372   4.9694  0.98907179115733

Отслеживайте ARABSAT 1D в реальном времени с AllMySat

Download on the App Store